Location: ???? ??
(36.0534°N, 43.5630°E)
Time: 08:46:29
(UTC+00:00)

LightSail 2 - Visible Passes

Search period start: 22 November 2019 00:00
Search period end: 02 December 2019 00:00
Orbit: 698 x 729 km, 24.0° (Epoch: 21 November)

Date Brightness Start Highest point End Pass type
(mag) Time Alt. Az. Time Alt. Az. Time Alt. Az.
29 Nov 7.4 16:20:41 10° SSW 16:22:27 15° S 16:22:27 15° S visible
30 Nov 7.3 15:23:28 10° SSW 15:26:01 14° SSE 15:28:06 11° SE visible
01 Dec 7.5 14:26:44 10° S 14:28:16 11° SSE 14:29:48 10° SE visible
01 Dec 7.0 16:09:28 10° SW 16:12:42 19° S 16:12:42 19° S visible
